Theta_e
321 322 324 325 325 325 323 323 322 323 326 326 324 323 323 322 322 322 321 321 322 322 325 325 325 324 327 327 327 326 323 322
321 322 323 324 325 325 323 321 322 324 326 326 324 323 323 322 322 322 324 324 326 324 325 325 326 325 326 328 327 324 325 324
320 321 322 323 323 323 322 321 321 323 326 327 325 324 323 323 322 324 325 326 326 327 325 324 322 321 318 319 327 324 320 319
321 321 323 322 322 321 321 321 319 326 328 328 328 325 324 322 322 326 325 325 326 326 323 322 318 319 302 307 319 322 321 323
320 321 323 323 322 320 318 318 324 326 328 329 327 326 324 323 322 322 324 324 325 322 319 318 315 313 300 304 311 321 322 324
321 322 323 322 320 317 317 323 325 326 327 328 327 328 324 323 322 321 320 320 325 319 317 315 313 313 301 304 308 321 322 323
322 323 323 320 318 317 319 323 324 324 328 326 326 326 324 324 322 321 320 320 319 319 318 315 314 315 301 304 315 321 321 323
322 323 322 319 316 318 318 320 322 323 325 326 326 325 325 323 322 321 321 324 322 323 319 317 312 315 300 303 316 323 322 322
323 322 320 318 317 318 316 316 319 323 326 325 324 324 324 323 322 322 322 322 322 321 319 316 315 314 310 302 307 321 322 321
322 320 318 317 318 317 315 314 316 319 323 324 323 325 326 325 323 323 322 320 320 318 317 316 315 315 305 302 304 309 312 321
322 319 317 316 317 318 315 315 315 320 323 323 325 326 326 325 324 322 320 319 320 319 319 318 314 314 314 301 302 303 306 316
322 319 317 315 315 317 317 315 317 325 323 323 325 326 323 325 325 324 321 319 319 319 319 315 314 314 315 313 312 310 304 310
324 320 318 317 316 317 318 317 321 324 323 324 325 325 324 323 319 319 323 322 321 321 321 320 317 316 316 310 313 316 314 310
321 321 320 319 318 317 319 317 323 323 322 324 325 324 323 320 314 310 298 300 299 303 308 316 320 310 299 299 301 301 298 301
317 320 322 321 319 318 321 318 324 324 322 324 324 323 323 316 312 313 311 307 297 298 300 303 307 305 299 299 299 296 296 304
318 322 324 322 320 319 321 319 323 324 323 311 325 325 324 319 315 312 312 312 314 313 299 301 298 298 299 297 296 300 310 311
322 324 323 323 321 320 321 320 321 323 324 323 325 326 324 320 319 314 312 311 313 312 307 302 296 294 294 294 297 319 317 316
319 318 319 321 323 323 323 320 320 321 323 314 316 323 323 321 321 319 315 313 311 312 315 315 304 305 308 307 307 319 318 318
318 316 313 312 317 320 325 321 321 321 322 318 314 321 321 322 321 321 320 317 315 312 315 312 300 317 316 315 314 316 319 320
308 307 307 311 309 314 313 311 313 319 320 320 319 320 318 320 320 321 320 321 319 315 313 310 293 318 318 318 317 318 320 321
Wind_Speed
13 13 13 12 10 10 9 7 8 7 6 7 7 7 7 6 6 6 5 5 4 3 5 4 3 1 0 0 3 4 5 5
15 13 13 12 11 11 10 8 8 7 7 8 8 7 7 6 5 4 5 3 4 5 6 4 3 2 4 4 2 3 5 4
16 15 13 12 11 10 10 8 7 7 8 9 7 5 6 6 5 3 1 5 3 6 6 5 4 4 4 4 5 4 6 5
17 16 15 14 13 11 11 9 7 8 9 9 7 7 6 6 5 4 5 3 5 6 6 5 5 3 8 6 5 5 5 4
18 17 16 14 13 11 10 8 7 7 9 9 9 8 6 6 6 5 5 5 6 6 6 5 5 3 8 7 8 5 5 4
17 15 14 13 12 9 8 10 9 9 8 11 7 9 7 6 6 6 4 3 6 6 5 5 4 2 6 7 9 6 6 6
16 15 15 13 13 11 12 10 10 10 10 10 8 9 7 7 6 6 4 4 5 5 5 6 5 2 6 6 8 5 7 7
14 15 14 14 11 12 14 11 10 9 10 10 8 9 7 7 7 6 3 4 5 5 5 5 6 5 4 6 7 6 8 6
13 15 16 15 13 13 13 12 11 10 12 10 8 7 9 8 6 3 4 5 5 5 6 4 4 4 3 7 11 5 7 7
16 14 13 12 13 14 12 12 10 7 10 10 8 8 7 6 7 4 6 6 7 6 6 4 2 4 4 6 11 9 8 9
12 14 12 11 11 13 13 11 8 8 10 9 9 7 6 6 7 6 4 5 7 6 6 5 3 2 2 5 12 12 10 7
7 8 12 11 8 11 13 9 9 12 11 11 10 10 7 6 4 4 5 5 5 5 5 4 3 3 3 3 5 6 9 7
6 10 9 11 9 10 9 9 12 11 12 11 9 7 8 6 4 3 4 4 7 7 5 6 6 4 4 6 8 6 6 8
8 7 10 7 7 8 9 10 13 13 11 10 9 8 6 5 6 3 6 3 2 6 10 8 3 6 11 10 10 13 15 15
11 4 8 13 11 9 8 10 12 14 13 11 8 9 7 7 5 6 5 3 4 4 9 12 12 9 13 12 14 13 12 9
11 9 4 13 12 13 10 10 13 14 12 14 11 9 8 7 6 5 5 5 4 4 7 1 8 14 14 12 14 12 4 1
11 11 14 2 12 11 10 11 13 14 12 10 10 9 9 9 7 5 5 4 4 5 3 5 7 11 9 5 16 7 8 6
15 14 14 13 5 3 6 9 12 11 12 16 11 9 8 8 8 8 6 5 5 5 6 7 6 5 4 5 5 5 7 7
15 15 15 16 12 11 2 3 8 6 9 9 14 9 9 9 8 9 8 8 8 6 7 7 13 12 11 10 10 9 9 8
15 15 16 16 15 13 12 11 4 4 8 10 10 10 9 8 9 9 8 9 10 10 7 5 11 10 10 11 11 11 10 10
Wind_Direction
137 136 141 142 144 143 140 143 151 153 138 135 132 137 142 149 161 160 169 172 185 173 147 153 160 174 89 143 225 171 175 151
144 144 147 147 149 154 151 159 155 161 151 145 147 156 152 157 166 175 174 209 219 152 142 153 117 54 37 8 141 98 127 139
150 150 151 151 152 154 156 167 153 158 150 144 156 148 141 152 162 175 216 183 158 130 123 102 83 54 25 357 101 123 104 103
154 152 154 156 161 160 161 168 155 154 155 147 148 139 149 154 154 127 97 141 113 113 116 119 90 51 350 38 109 100 86 91
160 159 160 161 167 158 166 155 148 142 149 145 153 143 152 165 154 139 121 126 108 108 115 117 106 77 10 80 100 93 98 97
164 158 160 163 161 155 140 146 150 144 149 154 160 148 162 161 149 142 136 129 132 132 130 123 111 54 17 108 106 103 92 84
166 159 160 158 158 153 144 151 151 150 157 159 170 149 156 157 160 152 153 138 132 138 139 134 127 91 29 117 112 100 101 102
159 158 154 153 155 153 146 153 159 167 162 167 173 155 159 162 159 164 155 144 138 133 129 143 147 136 39 143 123 116 120 115
147 153 157 159 152 154 155 155 169 182 162 160 162 154 167 161 146 132 147 134 123 121 121 124 143 134 90 142 122 120 133 126
150 151 155 155 155 156 161 166 178 161 156 154 142 135 142 142 134 127 119 127 129 129 121 118 126 101 87 142 121 117 129 137
146 144 147 158 160 164 162 187 144 147 148 143 142 131 129 143 134 136 117 122 136 141 144 152 147 119 101 129 128 126 120 117
101 131 149 168 164 169 172 171 133 146 147 145 147 143 143 138 122 130 131 142 139 145 148 146 147 143 143 132 115 102 99 88
134 159 163 176 170 173 175 157 139 147 150 148 152 147 155 135 98 140 159 186 178 165 169 161 157 173 194 156 143 135 132 131
44 161 157 172 169 182 180 151 146 147 151 155 158 156 157 150 140 118 50 46 321 227 161 160 171 159 143 143 135 133 134 145
18 16 187 172 172 176 198 156 150 154 156 161 160 159 155 156 148 156 164 42 51 182 188 166 160 170 158 151 144 139 146 132
357 358 170 174 178 187 184 166 153 158 160 160 164 167 165 161 161 170 157 166 166 144 64 100 167 161 165 155 139 121 147 204
7 20 27 115 185 196 176 167 158 161 160 168 168 171 172 168 163 159 162 166 165 140 111 67 71 85 67 141 165 170 184 195
29 23 18 21 14 302 207 173 166 164 169 171 167 168 170 173 167 168 173 175 169 168 173 171 133 106 153 181 214 193 195 202
30 21 20 30 14 10 151 140 173 175 177 172 176 167 176 180 179 181 181 179 187 189 193 175 173 173 185 193 197 202 199 204
27 18 13 6 5 12 26 20 352 195 182 183 182 183 185 184 184 189 182 189 186 189 195 171 176 190 189 194 200 207 209 211